Theta_e
337 337 337 345 346 347 346 344 345 345 344 346 347 346 345 344 344 343 343 342 341 340 340 340 340 340 342 348 349 348 348 347 348 347 347 346 346 346 347 347 347 346 346 346 347 347 347 346 346 344 343 342 341 341 343 343 343 344 344 344 344 344 344 344 343 344 345 344 345 345 346 346 345 344 344 344 343 342 341 341 340 337 336 339 342
336 336 337 341 347 346 345 345 345 345 344 347 347 347 345 344 343 342 342 341 341 340 340 340 340 340 343 348 348 348 348 347 348 347 346 346 345 345 345 345 344 344 344 344 343 344 344 343 341 341 341 340 340 340 340 340 341 341 341 342 342 341 341 341 341 341 341 342 343 343 343 344 344 343 344 343 343 342 341 341 340 335 335 340 341
337 337 338 343 346 345 344 344 344 344 344 346 346 345 344 344 343 342 341 341 341 340 341 341 340 340 340 345 347 348 347 347 347 346 346 345 345 345 344 344 343 344 344 343 342 342 342 343 343 341 341 340 339 339 338 339 339 340 340 340 340 341 340 340 341 340 341 340 339 339 342 342 342 342 342 342 342 344 342 341 340 339 336 341 340
338 340 340 343 345 344 343 343 343 343 347 346 346 346 345 343 342 342 342 342 341 341 341 341 340 339 339 341 348 348 347 346 346 345 345 344 343 343 343 343 342 342 343 343 342 342 341 342 342 340 338 338 337 337 337 337 339 339 340 340 340 340 340 340 340 339 339 339 339 336 333 331 338 342 344 344 344 343 341 341 341 341 342 342 342
341 342 340 343 344 345 344 343 345 347 347 346 346 346 345 345 344 343 341 341 341 341 339 338 338 338 339 342 347 346 346 346 346 346 344 343 342 341 341 341 341 341 341 341 340 339 340 342 340 339 337 337 337 337 336 336 338 339 340 340 341 341 340 339 339 338 338 337 335 331 325 328 334 339 342 342 343 342 342 342 342 343 342 342 342
342 343 342 341 342 345 347 347 348 347 347 346 346 346 343 342 342 341 341 341 341 340 340 340 340 339 343 346 345 344 345 345 345 344 344 343 341 341 341 341 341 340 339 339 339 339 341 340 339 339 338 337 336 336 335 336 336 338 340 340 341 340 340 340 339 338 337 335 334 329 328 329 330 335 342 343 344 341 341 341 341 342 341 342 341
343 343 342 340 341 344 347 348 348 348 347 346 346 345 345 344 343 343 342 341 341 342 341 340 339 340 346 346 345 344 345 345 345 344 342 340 340 340 340 340 340 339 338 338 340 341 341 341 341 341 339 338 337 336 337 339 339 338 339 340 340 340 340 339 338 337 335 331 329 330 331 331 332 336 341 342 343 341 339 341 342 341 342 342 341
343 343 342 340 341 344 346 349 348 347 347 346 346 345 344 343 343 342 341 340 340 340 340 338 338 339 344 345 344 343 343 345 345 344 341 340 340 339 340 340 338 338 338 339 340 341 341 340 340 340 339 337 336 337 337 336 338 338 339 340 340 340 339 338 337 336 335 329 329 330 332 333 334 335 340 342 341 341 340 340 339 339 341 340 336
342 342 341 339 340 343 346 347 348 347 347 346 345 345 346 344 343 342 342 341 340 340 339 339 339 341 345 344 344 344 344 344 344 343 340 338 338 338 338 338 338 337 337 339 339 341 341 339 339 339 339 339 339 339 339 339 338 339 340 339 340 339 338 337 335 333 331 330 330 331 332 332 334 334 339 341 341 340 339 338 339 341 339 337 337
342 342 340 338 339 342 345 346 348 348 347 346 346 346 346 344 344 343 342 341 340 340 340 338 338 341 344 344 344 343 342 342 342 341 339 337 337 337 337 336 337 337 338 338 338 339 339 340 340 340 341 341 339 338 338 338 339 340 340 340 339 338 337 335 333 332 329 329 330 332 334 336 331 334 338 341 341 339 337 334 336 335 335 335 335
342 342 340 338 338 342 346 348 348 347 347 347 346 346 346 345 344 343 342 341 340 340 340 340 339 339 345 345 346 345 344 344 343 341 339 337 336 336 336 336 336 337 337 338 338 340 342 342 341 341 341 341 339 339 339 340 339 339 339 339 338 338 336 334 331 327 329 330 331 331 334 336 332 333 338 339 340 338 335 335 334 335 335 334 334
341 342 341 339 343 341 346 347 347 348 347 347 347 346 346 345 344 343 342 341 341 340 339 339 339 337 343 344 344 344 343 343 342 341 339 336 335 335 335 336 336 337 337 338 338 340 341 341 341 341 340 340 339 339 339 339 340 339 338 338 337 336 335 333 328 327 327 328 330 331 331 332 332 333 338 339 339 337 335 335 334 334 334 334 334
340 341 342 341 339 340 344 346 346 347 347 347 347 346 346 345 344 343 342 341 341 340 340 339 338 340 343 344 343 342 341 342 342 340 339 336 335 335 334 337 337 336 337 339 339 339 339 340 340 339 339 339 339 339 339 338 338 337 336 336 335 334 331 330 326 326 327 327 328 329 329 330 331 335 337 338 337 336 335 335 334 332 332 331 331
339 341 342 342 340 343 340 342 343 346 347 347 347 346 346 345 344 343 342 341 341 340 340 339 338 339 341 342 342 341 340 341 342 340 338 335 335 334 334 334 335 336 337 337 338 338 339 340 340 339 338 338 337 338 337 337 336 336 336 336 335 332 329 327 326 323 324 325 327 327 328 329 330 335 336 336 336 335 334 332 331 330 330 329 329
338 340 342 342 341 340 342 339 342 342 344 346 346 346 346 346 345 343 342 341 341 340 340 339 338 340 341 340 340 340 341 341 341 340 338 336 334 334 334 334 335 337 338 337 337 337 339 339 339 339 338 337 336 336 336 336 336 336 335 333 331 330 327 323 322 322 322 325 326 326 325 329 335 336 335 336 336 333 332 331 329 329 328 328 327
340 341 341 342 341 340 341 341 337 337 341 343 344 344 345 345 345 344 342 341 341 341 340 339 338 337 340 337 337 340 341 341 340 339 338 337 336 334 334 334 335 337 337 336 336 336 337 339 338 337 336 336 336 336 336 336 335 334 333 332 330 327 325 323 321 321 322 324 325 325 324 329 334 335 335 336 334 331 329 329 328 327 327 327 327
340 341 341 341 341 340 340 339 337 334 335 336 339 340 342 344 345 344 342 342 341 341 340 339 338 337 337 337 336 339 340 340 339 338 337 336 336 334 334 333 335 336 335 335 335 336 338 337 337 336 335 335 336 336 335 335 334 333 331 330 328 326 323 322 321 321 323 324 324 324 325 327 332 333 334 335 332 331 328 328 327 327 326 325 325
339 340 340 341 341 340 339 339 336 335 335 334 333 337 340 343 343 342 342 341 341 341 340 340 339 339 339 337 338 339 340 339 338 337 337 335 335 335 335 334 334 335 335 335 335 336 336 336 336 335 335 335 335 335 334 333 332 330 329 328 326 325 323 322 320 321 323 325 322 322 322 331 333 333 334 332 330 329 327 326 326 325 325 324 325
338 339 340 341 341 339 339 338 335 335 335 335 334 335 334 338 340 339 339 340 340 340 340 338 338 338 336 334 333 332 332 333 335 335 335 334 332 331 334 335 335 335 334 334 335 336 336 335 335 335 335 334 334 333 332 331 329 328 326 324 321 320 320 320 319 320 320 321 322 325 327 332 332 332 331 331 329 327 327 325 324 324 324 324 324
337 338 339 340 340 339 339 338 337 337 336 336 335 333 332 332 335 337 336 337 337 338 336 334 331 330 329 328 326 326 325 325 326 327 330 333 331 326 331 334 335 334 333 334 335 335 335 335 335 334 333 333 332 331 329 328 327 325 323 322 319 318 318 317 317 319 320 321 323 325 330 332 332 333 330 329 327 326 324 324 324 324 324 325 324
335 337 338 338 340 339 339 337 336 337 337 337 338 337 334 330 331 331 332 334 334 334 333 326 323 322 322 321 322 322 321 322 322 322 322 323 323 324 329 335 334 333 333 333 334 334 334 334 334 333 331 329 326 325 325 326 324 323 321 318 316 316 315 317 318 319 320 321 323 325 331 332 331 332 330 329 326 325 324 324 323 323 322 322 321
333 334 337 338 338 339 338 337 336 337 337 337 338 338 336 333 333 332 331 330 328 326 326 325 325 321 320 321 321 321 320 319 320 324 320 322 322 323 327 333 333 332 332 333 333 333 332 332 332 330 327 323 318 313 314 317 319 319 317 315 314 312 313 315 316 317 320 324 325 328 330 330 331 330 328 326 326 325 323 323 323 322 322 322 321
331 332 334 337 337 338 338 337 336 336 336 336 337 337 337 336 333 332 331 326 327 326 326 324 321 321 320 320 320 319 318 317 317 319 319 320 322 322 326 330 331 330 331 331 332 332 331 330 328 325 322 317 310 309 308 308 309 312 312 311 310 310 311 313 314 317 320 323 326 328 329 330 329 329 327 325 323 324 324 323 322 322 321 320 319
332 333 334 336 337 337 337 338 337 337 336 336 336 337 337 336 335 335 334 328 325 326 324 323 322 321 320 320 319 318 318 318 322 322 321 318 320 321 324 325 327 326 327 327 328 328 327 325 322 319 314 310 308 307 307 306 307 307 308 308 308 308 310 311 313 315 317 319 324 327 328 328 328 327 326 325 326 323 321 321 321 320 319 319 318
333 334 334 334 336 337 337 337 338 337 337 336 335 335 337 337 336 336 335 330 326 324 323 322 321 320 319 319 318 317 317 317 317 317 317 317 316 317 319 319 317 314 316 312 311 312 310 308 308 308 306 307 307 306 306 306 306 306 306 305 306 306 307 309 312 314 314 316 319 324 326 327 326 326 324 323 323 323 322 322 320 318 318 318 318
332 332 332 334 335 337 337 337 337 337 337 337 336 335 336 336 336 336 335 332 327 324 322 322 321 320 319 319 318 317 317 317 316 316 316 317 316 315 315 314 313 310 311 308 306 306 306 306 306 305 304 304 304 304 304 305 305 304 304 304 305 305 305 307 311 312 313 316 319 322 324 326 325 324 323 323 323 323 321 322 320 318 318 318 317
332 333 334 334 335 336 336 337 337 337 337 338 337 335 336 337 337 336 335 332 329 326 322 320 321 320 319 318 318 317 316 316 316 315 316 316 316 314 314 313 312 308 306 306 304 304 304 304 304 303 303 304 303 303 303 302 302 303 302 302 302 303 304 308 310 310 311 313 313 317 322 325 323 323 323 324 323 324 322 321 320 319 318 318 317
331 333 334 334 334 335 336 337 337 337 337 337 337 335 336 337 337 334 335 332 330 327 325 322 321 320 319 319 318 318 317 316 316 316 315 313 315 315 313 312 310 307 305 305 303 302 302 302 303 302 304 303 303 302 302 301 301 301 302 301 301 301 302 305 307 307 308 309 309 313 320 323 323 322 323 323 323 321 322 319 319 320 319 318 317
330 332 334 334 335 335 336 336 336 336 337 338 336 336 336 336 336 335 335 330 332 329 327 324 321 319 319 318 318 317 316 316 316 316 314 315 314 313 313 311 309 307 305 303 303 302 302 302 302 303 303 303 302 301 301 300 300 300 301 300 299 299 300 303 305 304 304 303 305 309 319 323 325 323 322 322 322 323 321 319 320 319 318 317 316
331 332 333 334 336 336 336 336 336 336 337 337 337 335 335 335 336 335 336 331 333 332 328 325 324 321 319 318 318 318 317 317 315 314 315 314 313 311 312 311 308 305 304 303 301 302 301 301 302 302 302 301 301 300 301 300 299 298 298 299 297 297 297 299 300 300 300 300 301 304 314 321 323 324 322 322 323 323 322 320 319 318 317 317 316
330 330 332 333 334 335 336 336 337 335 337 336 337 336 335 334 335 336 336 333 334 333 329 326 325 323 322 319 318 317 317 316 315 314 314 314 313 312 311 310 307 304 304 302 300 301 301 301 302 301 301 300 298 298 299 298 297 297 297 297 296 296 296 297 297 298 299 298 298 299 303 314 321 323 325 322 322 321 319 319 319 318 317 317 316
326 329 331 333 333 334 335 336 337 336 335 336 336 336 335 335 335 335 335 335 335 334 331 328 324 324 323 322 321 320 319 319 317 316 315 313 313 313 311 310 307 304 303 301 300 300 300 300 300 300 299 298 297 297 297 298 297 296 295 295 294 295 295 296 296 296 296 295 295 296 298 302 310 316 320 323 321 320 319 319 318 318 318 317 317
324 326 330 331 332 333 334 336 337 336 335 336 336 336 336 336 335 335 335 335 335 334 332 330 328 325 324 323 322 321 320 320 319 317 315 315 315 314 312 310 308 305 303 301 300 298 298 298 298 298 297 298 298 298 299 297 296 295 295 293 295 294 294 294 293 294 295 294 294 294 295 296 297 306 312 319 321 318 319 319 317 318 318 318 317
322 321 324 328 331 333 333 335 336 337 335 337 337 336 336 336 335 336 334 334 335 335 333 332 329 326 325 323 322 321 320 321 319 318 316 315 314 314 314 311 308 305 303 301 299 298 298 298 296 297 298 298 297 296 296 295 293 293 293 292 293 293 293 293 292 292 293 294 293 294 294 295 295 296 300 311 316 319 319 319 317 316 317 317 316
317 317 320 324 326 330 332 333 333 335 334 336 335 336 336 335 335 336 335 334 333 334 335 333 331 328 326 324 323 321 320 320 320 319 317 316 314 314 314 314 309 307 305 303 301 299 300 299 298 297 296 295 295 295 296 295 294 294 293 293 292 293 293 292 293 293 293 293 293 295 294 294 295 295 297 298 304 310 319 318 317 318 316 316 315
317 318 318 319 322 325 328 331 332 333 335 335 336 336 336 335 333 330 335 335 334 333 334 334 333 330 327 326 324 322 320 320 320 319 317 316 314 313 314 314 310 309 306 303 301 300 299 299 299 299 297 294 295 294 295 294 294 293 293 293 292 293 292 293 293 293 292 292 292 293 292 293 293 296 298 297 300 304 312 317 320 318 315 316 315
316 316 317 316 319 322 323 328 330 331 333 333 334 335 335 335 335 333 333 333 334 334 334 333 333 332 329 327 325 322 320 320 320 319 318 316 314 313 313 312 311 309 306 303 301 301 300 299 298 299 301 296 296 295 294 295 294 293 292 292 292 291 291 291 291 291 292 292 292 291 292 293 294 296 293 294 294 297 306 311 314 314 316 320 315
315 315 316 317 318 320 322 324 328 330 332 332 332 333 333 333 334 334 331 333 333 334 334 334 333 332 331 328 327 324 321 320 320 319 318 316 315 314 312 312 311 309 307 304 302 301 300 300 298 298 300 299 297 296 295 294 294 293 292 292 292 292 291 291 291 293 291 291 291 292 291 289 290 291 291 291 291 293 297 304 308 309 309 316 318
314 315 315 316 316 317 318 320 322 326 329 330 330 330 330 330 331 331 331 332 333 333 333 333 334 334 332 330 329 326 322 322 321 319 318 317 315 313 311 310 310 310 308 305 303 300 300 300 299 297 297 298 299 298 296 294 293 292 291 290 290 290 290 291 290 290 290 291 291 292 290 289 289 289 290 290 290 292 292 291 292 295 301 310 315
312 313 313 314 315 315 316 318 320 323 325 327 327 326 327 326 326 324 326 328 331 329 331 332 332 333 333 332 330 329 326 323 323 321 319 317 316 314 312 310 309 309 308 306 303 300 299 299 298 296 296 296 297 296 295 293 292 292 291 291 291 291 292 292 290 290 290 290 289 289 289 289 288 289 289 289 289 290 290 290 292 291 294 304 309
308 310 311 313 315 316 316 317 319 320 322 324 324 325 324 324 325 326 326 327 327 329 329 330 331 332 332 333 331 330 329 326 323 322 320 316 317 315 314 311 309 308 308 307 306 302 301 300 299 297 296 295 294 294 294 294 292 293 294 294 293 292 291 290 289 289 289 288 288 288 288 288 288 288 288 286 287 287 287 288 289 288 289 289 297
304 308 310 313 314 315 316 317 316 318 320 323 324 325 326 326 325 326 326 327 325 325 327 328 329 328 330 331 332 332 330 328 324 325 321 320 317 316 315 312 309 308 308 308 307 302 301 300 298 296 296 296 293 294 294 296 294 296 292 291 293 292 291 290 289 289 288 287 287 286 287 288 288 288 287 286 286 285 285 285 285 286 286 287 289
301 305 309 309 310 313 315 316 316 318 319 321 322 322 324 323 324 321 325 322 320 324 326 324 325 327 327 329 330 331 332 331 327 325 324 322 320 318 317 314 310 308 307 308 307 303 301 300 298 297 293 295 294 294 294 299 296 292 293 293 291 292 296 292 291 288 288 287 286 285 287 287 287 287 286 285 285 285 284 283 285 286 286 287 288
298 300 305 309 311 311 314 315 316 317 318 319 317 319 315 315 313 311 315 319 317 315 317 317 322 324 325 327 328 329 330 329 329 327 326 325 323 320 319 316 312 309 308 307 307 305 302 300 298 298 296 293 292 292 294 297 295 294 291 294 291 290 289 295 294 290 287 287 286 286 287 287 287 286 285 285 285 284 284 284 285 287 288 288 288
298 301 304 307 311 311 313 314 314 315 315 314 316 312 311 309 307 308 309 310 310 312 315 318 320 320 322 323 326 326 327 328 330 329 325 326 325 323 320 318 315 311 309 308 307 306 303 301 299 299 297 296 293 293 293 295 296 300 298 288 287 286 291 290 286 290 285 286 286 286 287 287 286 286 285 285 284 283 285 285 285 285 286 286 287
296 298 299 304 306 308 309 310 310 310 313 312 313 313 314 315 312 314 313 310 313 310 314 317 318 318 321 322 322 323 324 326 327 329 328 326 326 324 323 320 318 315 312 310 309 308 304 302 300 299 298 299 298 294 292 293 295 296 297 299 297 298 292 288 292 293 287 286 286 286 286 286 286 286 285 285 284 284 285 285 285 285 285 285 286
295 295 297 301 303 304 306 308 310 308 308 308 310 311 311 312 314 316 317 316 315 314 309 310 317 318 319 319 321 320 323 324 324 326 327 325 326 326 325 323 321 319 314 313 311 309 307 304 302 300 300 299 299 295 294 293 293 294 295 295 294 292 293 289 290 289 290 287 284 285 285 286 286 285 285 285 284 284 284 285 285 285 285 285 285
293 293 295 297 301 303 303 305 304 305 304 306 308 311 313 312 311 312 313 314 313 314 309 308 304 306 314 318 318 318 319 321 323 322 322 323 323 325 325 324 322 320 315 314 313 312 310 307 304 302 301 300 300 299 297 295 292 293 294 294 293 292 291 292 293 295 294 291 289 285 285 285 285 285 285 285 285 284 285 285 285 285 286 285 285
292 294 295 296 297 299 300 301 302 302 302 305 307 308 311 312 312 311 311 310 310 308 300 301 305 302 307 310 315 317 316 317 319 320 319 320 318 319 321 321 322 322 317 318 316 315 313 309 305 302 301 301 301 301 301 297 294 296 293 293 294 292 292 291 291 289 292 292 295 288 286 284 285 286 285 286 285 285 286 286 286 285 285 285 284
291 293 294 295 296 296 299 300 301 300 301 303 305 306 307 307 309 308 309 310 306 302 300 301 301 299 305 306 310 313 314 314 314 315 316 316 316 315 316 317 318 317 313 316 315 314 312 309 307 304 303 301 301 300 301 300 297 298 297 295 293 293 292 290 289 288 288 291 295 292 288 284 282 285 285 285 285 286 286 285 285 285 285 284 284
290 291 292 293 294 296 296 299 299 297 298 302 303 305 305 305 308 308 308 309 306 304 302 301 298 296 302 303 306 309 311 313 313 313 313 314 314 313 314 315 314 312 312 315 315 315 313 311 309 306 304 302 301 301 300 301 299 297 298 297 295 294 293 292 292 290 290 289 287 290 289 287 288 287 287 286 286 287 286 285 284 284 284 284 284
Wind_Speed
6 5 4 7 11 12 12 10 9 10 6 7 12 13 14 13 14 15 14 15 14 13 13 14 14 13 14 16 15 14 16 16 17 17 16 16 16 16 16 16 17 17 17 17 18 18 19 18 19 19 17 17 17 16 16 16 17 18 18 19 19 20 20 19 19 17 17 19 19 20 19 20 20 19 19 20 20 18 15 15 14 13 11 16 21
9 4 3 3 13 13 13 11 11 11 8 10 12 13 13 14 14 14 14 14 14 14 13 13 12 13 14 16 15 15 16 16 16 17 17 16 16 15 16 16 16 16 16 16 17 17 17 16 16 16 17 16 17 16 16 17 18 18 19 19 20 19 19 19 18 17 17 15 16 16 18 19 19 19 19 19 19 18 15 16 16 11 9 19 20
6 4 3 4 12 13 12 12 11 10 10 12 13 13 14 14 14 14 14 14 14 13 13 13 13 12 13 13 16 16 16 16 17 17 17 16 15 15 15 16 16 16 16 16 16 16 16 16 18 18 16 18 17 17 18 17 17 18 18 19 19 18 18 17 16 16 15 14 14 14 13 18 18 17 18 19 19 19 15 17 17 17 13 21 19
7 4 4 5 11 13 12 12 12 12 13 12 13 13 14 14 14 13 13 13 13 13 13 13 12 12 12 13 17 16 16 17 17 18 17 16 15 14 14 15 15 16 16 16 17 17 16 16 18 17 17 17 18 17 17 16 17 17 18 18 17 17 16 16 15 15 14 13 12 9 7 6 12 18 19 19 20 19 17 19 19 20 21 20 21
8 5 4 4 5 10 15 15 14 13 13 13 13 14 14 13 13 13 13 13 12 12 13 13 13 12 11 13 15 15 15 15 17 18 17 15 14 14 14 15 15 15 16 16 16 15 16 17 18 17 17 17 17 17 18 17 17 16 17 17 16 16 16 16 15 14 14 13 12 8 5 6 8 15 17 20 20 18 18 19 20 20 20 21 21
7 5 4 4 4 7 11 11 13 13 14 13 13 14 13 13 13 13 13 12 12 12 12 12 11 11 14 14 14 13 14 15 16 16 16 15 14 14 13 15 15 16 15 15 15 16 17 18 18 17 17 17 17 17 17 17 17 17 17 17 17 17 16 15 15 14 12 12 10 5 5 5 5 9 20 19 21 18 19 20 20 19 19 22 20
8 4 4 4 4 6 9 11 13 13 14 13 12 13 13 13 13 13 13 12 11 11 10 11 11 11 14 14 14 14 14 14 16 17 16 15 14 13 13 15 16 15 15 15 16 16 16 16 16 17 17 16 16 16 17 17 17 16 17 17 18 17 17 16 15 14 13 7 6 6 6 7 6 7 19 19 20 20 20 21 21 21 23 22 21
5 4 4 3 4 6 8 10 11 13 13 13 12 12 12 12 12 13 13 12 11 10 10 11 11 11 14 13 13 13 13 14 16 17 16 15 14 13 14 14 15 15 15 16 15 16 16 16 16 17 17 17 16 15 15 16 16 17 17 18 18 17 17 16 14 13 12 7 6 6 7 7 7 6 18 20 20 20 21 21 20 22 23 23 18
6 5 4 4 4 7 8 9 12 13 13 12 12 12 12 12 12 12 13 13 12 10 10 10 10 12 14 14 13 14 14 15 16 17 16 15 14 13 15 15 14 15 16 15 16 16 16 16 15 16 16 16 15 15 16 16 17 17 18 18 18 17 16 15 14 12 7 6 7 7 8 7 7 7 16 21 22 22 20 17 19 24 23 21 23
6 5 4 3 4 7 8 9 12 13 13 13 12 12 12 11 11 12 12 12 12 11 10 11 10 12 14 15 12 13 13 14 14 15 15 16 14 13 14 14 14 14 15 14 15 14 15 15 15 15 16 16 16 16 16 17 17 17 18 19 18 17 16 15 13 9 7 7 7 7 7 8 4 7 16 22 23 22 20 19 17 17 17 23 26
6 5 4 3 4 7 9 11 10 11 13 12 12 12 11 11 11 11 12 12 12 11 10 9 9 12 15 14 14 14 14 15 16 16 14 15 14 13 14 14 14 14 14 14 14 14 15 15 15 16 16 16 17 17 17 17 17 18 18 18 18 17 16 13 9 7 8 8 8 7 9 13 7 7 19 21 23 22 19 21 21 21 24 25 24
8 5 4 3 6 7 9 9 9 12 12 12 13 12 11 11 11 11 11 11 11 11 11 10 9 9 13 13 13 13 14 14 14 15 15 15 14 13 14 14 15 15 14 13 13 14 15 16 16 16 16 16 16 16 17 17 18 18 17 17 16 16 16 13 7 7 6 7 8 8 7 8 8 13 21 22 22 21 21 22 23 22 22 22 21
9 6 5 4 3 6 8 9 9 10 12 12 12 12 11 11 11 11 10 10 10 10 10 9 7 10 12 13 12 13 13 13 14 15 15 14 14 13 13 15 15 14 13 12 13 13 14 15 16 16 16 16 16 17 17 17 17 16 15 14 14 13 12 10 6 6 6 6 6 6 6 5 8 18 21 22 22 21 22 22 22 21 21 19 19
9 7 5 4 3 6 8 9 8 10 10 11 12 12 12 12 12 11 11 11 10 10 10 9 7 10 11 12 12 11 12 13 13 14 15 14 13 12 13 13 14 13 13 12 13 13 14 15 16 16 16 16 16 15 16 16 16 15 14 15 14 13 11 8 6 5 5 5 5 4 4 4 7 19 20 20 20 20 20 21 21 20 20 19 18
9 8 6 4 4 4 9 9 8 9 9 10 10 11 12 12 12 11 11 11 11 10 10 9 7 11 10 11 11 11 11 14 13 14 15 14 12 11 12 13 13 13 12 11 12 14 15 15 16 16 16 15 14 15 16 15 16 15 15 14 12 11 9 5 5 5 5 5 4 4 4 5 15 18 19 20 20 20 20 19 19 19 19 19 19
7 8 5 5 4 3 5 7 8 8 9 9 9 10 10 10 10 11 11 11 11 11 10 9 8 8 11 10 10 12 12 13 14 14 14 13 12 12 12 13 14 12 12 11 12 12 14 15 15 15 14 14 14 15 15 15 14 14 14 12 11 10 9 6 5 5 6 6 5 4 4 6 16 16 17 19 21 20 19 19 19 18 18 18 18
6 6 6 5 4 4 4 4 5 8 7 8 8 8 9 9 9 10 9 10 11 11 10 10 9 7 8 10 8 9 12 12 14 13 13 12 12 11 11 12 12 11 11 11 12 13 14 14 14 14 14 14 15 14 14 14 13 12 12 12 11 10 9 8 6 4 5 4 4 4 5 7 14 15 17 20 21 19 19 19 18 17 17 16 17
5 6 7 6 4 4 4 4 4 4 3 6 7 8 8 8 8 8 8 8 9 10 10 9 9 7 7 7 7 8 11 11 11 10 10 12 10 7 10 13 11 11 10 10 12 12 13 13 14 14 14 15 14 14 14 13 13 12 13 12 10 9 9 9 5 5 5 5 5 3 3 7 16 19 20 20 20 19 18 18 17 17 16 17 17
4 5 5 6 5 4 5 4 3 3 4 4 3 5 8 8 8 7 7 8 8 8 8 8 7 8 8 8 9 11 11 11 10 10 11 11 8 6 8 12 13 12 11 11 13 13 13 14 14 15 14 14 14 13 13 13 13 13 13 11 9 10 11 7 5 5 5 5 4 6 7 14 17 18 20 20 20 19 17 16 16 16 17 16 17
6 5 6 5 4 5 4 5 4 4 4 4 4 4 6 8 8 7 8 8 8 8 8 8 9 9 9 9 10 9 9 8 11 8 10 10 8 4 6 12 13 12 11 12 13 13 14 14 15 14 14 14 14 13 13 13 12 12 11 11 9 10 7 5 4 5 5 4 4 4 8 14 16 19 21 19 19 18 17 16 15 16 16 16 17
4 6 6 6 5 5 5 4 4 4 4 4 4 4 5 7 6 7 8 8 8 8 8 9 9 9 8 9 8 6 5 5 6 5 7 6 8 6 5 12 13 12 12 12 13 13 14 14 14 14 14 14 12 12 12 12 11 11 11 10 11 7 5 5 5 5 5 5 4 3 7 11 17 20 20 18 17 17 16 15 15 15 15 15 15
6 5 6 6 6 6 6 5 5 6 5 4 4 3 4 5 5 4 4 5 6 7 7 5 6 5 8 7 5 5 5 4 4 5 5 5 6 7 5 10 13 11 11 13 13 13 13 14 14 14 14 13 11 7 7 9 11 10 9 11 8 5 5 6 6 5 4 4 4 7 14 16 18 19 19 17 15 17 14 14 15 15 15 14 15
7 6 6 7 6 6 6 6 5 5 5 5 4 4 5 4 4 5 4 5 5 5 5 5 4 4 4 5 5 5 4 3 4 4 4 6 6 7 6 8 10 10 10 12 12 13 14 14 14 13 12 11 7 5 5 5 6 8 8 7 6 5 5 6 6 5 4 4 5 11 14 15 17 16 16 14 11 15 17 16 14 13 13 13 13
9 8 7 6 6 6 7 8 7 6 6 5 4 5 5 4 5 5 5 4 4 4 4 4 5 4 5 5 5 5 5 5 5 7 6 4 5 7 8 9 9 9 10 7 10 11 13 13 13 11 7 5 5 5 5 5 5 5 5 5 5 4 5 5 5 5 4 4 4 9 11 13 15 15 14 13 16 13 12 11 12 13 13 12 12
6 5 5 7 7 7 6 7 7 6 6 6 5 5 5 4 4 5 5 5 4 4 4 4 4 4 5 4 4 4 5 5 4 4 4 4 4 4 4 5 5 5 7 5 5 6 6 6 6 6 5 5 6 5 4 5 5 5 5 5 4 4 4 4 5 4 4 3 1 3 7 10 11 13 13 12 12 14 13 13 12 10 11 12 12
4 6 8 7 7 7 7 7 7 7 7 7 7 7 6 5 5 5 5 5 5 4 4 4 4 4 4 5 5 5 5 5 4 4 4 4 5 4 4 5 5 4 4 5 5 5 4 5 5 5 5 5 5 4 4 4 5 5 5 4 4 4 4 3 5 4 3 2 1 6 9 10 13 14 12 11 12 12 12 13 12 11 11 12 11
7 7 6 6 6 7 7 8 7 7 8 6 5 6 6 5 5 5 6 6 5 5 5 4 5 4 5 5 6 5 5 5 5 5 5 4 5 4 4 5 5 4 3 6 4 3 4 5 5 5 4 5 5 4 5 4 4 5 4 4 3 3 3 3 4 4 3 3 4 7 3 12 12 12 11 12 11 13 12 12 12 12 11 10 10
5 7 7 7 7 9 8 9 8 7 7 6 7 6 6 6 6 6 6 6 6 6 5 5 4 5 5 5 5 5 6 5 5 5 5 4 5 4 4 5 5 5 3 5 5 3 4 4 4 4 5 4 5 4 5 4 4 3 5 3 3 3 3 3 4 3 3 3 3 5 4 11 8 9 11 11 10 11 11 10 10 11 11 10 9
8 8 7 8 8 8 8 10 9 9 6 6 7 6 6 6 6 5 6 7 6 6 6 5 5 4 4 5 5 6 4 5 5 5 4 5 4 4 3 4 4 5 5 4 5 4 4 4 4 4 3 4 4 4 4 4 4 4 4 4 3 3 2 3 4 3 3 3 3 4 4 8 9 10 10 11 11 11 10 8 9 9 9 9 9
11 9 8 8 7 8 9 10 10 9 7 7 6 7 7 7 7 7 6 7 7 6 6 6 6 6 5 4 4 5 6 6 6 4 6 5 4 3 3 4 4 4 4 5 3 4 5 4 4 4 5 4 4 2 3 4 4 3 3 4 4 2 2 3 3 3 3 3 4 4 5 7 9 11 11 10 12 11 11 10 9 9 9 9 9
9 11 10 8 6 7 9 9 9 9 7 8 7 7 8 8 7 6 6 6 6 7 7 6 6 6 6 6 5 4 5 5 6 6 4 5 4 4 4 3 5 4 4 5 3 3 4 4 4 5 5 5 5 3 4 5 4 4 3 4 3 3 3 2 2 3 3 3 3 3 4 6 6 10 9 10 13 11 9 10 9 9 9 9 9
11 13 10 7 7 9 8 10 10 9 9 9 8 8 7 9 8 7 7 6 6 6 7 7 7 6 7 7 7 6 5 5 6 5 5 5 5 5 4 5 4 4 4 5 5 4 4 3 4 4 4 4 4 4 3 4 4 3 3 3 2 3 2 2 2 3 2 2 2 2 3 4 8 8 1 12 12 11 9 10 10 9 10 9 9
9 8 8 8 11 9 9 8 10 10 10 10 9 8 7 7 8 7 7 8 7 6 7 8 8 7 8 9 8 7 6 6 6 7 6 6 5 6 5 5 5 5 4 5 5 4 4 5 4 4 5 5 5 4 3 3 3 2 3 2 2 3 2 2 2 2 2 2 2 2 2 3 2 5 7 5 11 10 10 10 9 10 10 11 10
8 6 5 11 9 7 7 7 7 10 11 10 9 8 8 7 7 6 6 7 8 8 6 6 7 7 8 9 10 8 7 6 6 6 6 6 6 6 6 6 5 5 5 6 6 5 5 5 5 5 4 4 5 4 4 4 3 2 3 2 2 1 1 2 2 2 1 1 1 1 2 2 2 2 2 5 5 5 12 12 11 9 10 10 9
5 6 11 10 8 9 7 7 9 9 9 11 11 9 7 7 8 8 7 6 4 7 8 7 7 8 7 7 9 11 10 8 7 7 7 6 6 6 7 7 6 6 6 6 6 5 5 6 6 6 4 4 4 3 3 4 4 4 2 3 3 1 1 2 1 1 1 1 1 1 1 2 2 1 2 2 3 5 4 7 12 14 10 9 9
11 10 7 6 9 9 8 10 9 11 10 10 10 9 8 6 4 5 8 11 9 6 4 6 8 8 8 8 9 8 11 11 8 7 7 7 7 7 8 7 9 7 6 6 6 7 7 6 6 7 7 4 5 3 3 5 3 4 1 1 2 2 2 1 1 1 1 1 2 2 2 3 3 3 1 2 3 3 6 8 6 6 6 11 11
9 8 10 7 9 10 10 11 12 13 12 10 9 9 9 9 9 6 4 5 8 10 8 4 4 7 8 9 9 9 9 10 12 11 9 8 7 6 5 6 7 9 9 9 8 7 7 6 6 5 6 7 6 5 4 3 3 3 2 2 2 1 1 0 1 1 1 1 0 0 0 1 0 1 2 2 2 1 6 8 6 6 8 9 5
9 9 9 11 12 9 10 12 11 11 11 11 9 8 8 8 9 10 9 8 7 6 8 8 6 4 5 7 9 10 10 9 9 11 9 9 9 10 9 8 7 5 4 6 8 8 9 10 9 8 7 8 7 8 7 4 3 3 3 2 2 2 2 3 3 2 1 1 1 1 1 1 1 1 1 2 2 2 3 5 6 7 8 5 7
9 10 8 9 8 8 8 10 11 11 10 10 9 7 6 5 5 7 8 10 9 8 7 8 9 8 5 6 8 8 8 10 10 9 9 8 7 5 6 9 10 9 7 4 3 5 6 6 9 9 5 5 8 7 7 6 5 4 3 2 2 3 1 1 1 2 2 1 2 2 2 2 2 2 2 2 3 3 4 4 4 4 4 7 4
7 6 8 7 9 8 8 8 10 10 8 7 6 7 6 7 7 4 6 8 7 6 5 6 5 8 9 8 6 8 9 10 10 9 7 7 7 8 8 5 5 8 10 10 8 8 12 11 8 10 8 4 3 6 6 7 4 5 3 2 2 2 4 3 2 3 3 3 2 1 3 2 2 2 2 1 2 2 3 3 3 4 4 5 6
7 8 9 10 11 12 10 13 11 9 9 9 8 9 9 8 7 9 10 6 6 6 7 6 5 6 7 9 9 7 8 9 9 9 10 9 7 5 7 7 6 7 9 12 13 10 7 6 4 4 9 7 3 4 6 7 7 3 2 1 3 1 3 4 5 4 4 3 2 3 3 3 4 3 2 2 1 2 1 3 3 3 5 4 4
10 9 12 14 11 9 10 11 6 9 10 11 10 9 10 10 10 10 8 7 6 7 7 6 7 5 6 8 9 10 9 8 8 8 9 9 9 9 10 11 10 9 8 5 7 8 8 6 6 5 4 9 7 6 6 8 3 9 6 3 3 4 5 4 5 7 5 4 4 3 3 4 5 4 2 2 2 2 1 1 1 2 3 3 3
7 9 9 6 7 9 11 9 8 10 10 10 9 11 9 7 8 5 7 4 3 5 6 4 5 6 6 7 7 7 9 11 12 11 10 9 9 9 8 6 10 11 9 8 7 8 10 12 11 9 6 2 3 5 9 10 4 3 3 5 2 2 5 4 6 9 7 5 3 4 5 5 6 4 3 3 3 3 2 1 1 2 3 3 4
5 5 7 10 8 8 10 10 10 9 9 9 10 7 4 3 1 1 2 4 4 3 3 3 4 6 8 7 7 7 7 7 7 10 11 10 10 11 9 8 7 7 10 10 9 9 8 9 10 10 9 7 6 9 11 11 4 10 3 6 1 2 4 11 10 6 6 7 7 7 5 7 6 5 3 5 5 4 3 3 3 4 4 4 4
7 7 7 8 7 9 8 7 6 6 5 5 7 4 5 4 3 4 3 2 2 2 3 5 6 6 6 7 9 7 7 7 8 8 8 10 12 12 12 12 13 13 12 12 12 14 14 13 13 10 12 12 11 8 10 12 11 11 6 6 2 1 9 2 2 5 5 6 10 8 7 7 7 6 6 7 5 5 5 5 5 4 4 3 3
6 4 4 5 5 6 6 6 5 5 6 5 5 6 6 7 6 6 5 4 6 5 9 11 8 8 10 7 5 7 7 7 7 9 10 11 11 9 7 6 5 5 7 9 10 9 10 12 13 14 15 13 12 9 9 9 12 12 8 3 5 7 6 3 2 6 1 7 3 6 8 8 6 7 7 7 7 6 5 6 4 5 3 3 3
5 3 4 5 5 5 5 5 5 4 4 4 5 6 5 6 9 10 10 10 10 8 6 5 7 7 5 6 6 6 8 9 8 8 7 6 8 10 13 14 13 12 11 10 10 11 11 13 12 12 14 12 8 10 12 11 8 9 11 9 2 2 4 7 7 1 5 1 7 8 9 9 8 8 9 9 7 7 6 5 6 6 5 4 4
4 2 3 3 4 4 4 4 4 4 4 5 6 7 8 7 7 8 8 8 9 9 6 6 4 4 6 7 6 6 7 8 8 7 5 6 7 7 7 8 9 9 8 9 10 11 11 11 12 14 11 9 12 13 13 11 15 15 14 11 7 1 3 0 3 8 5 4 4 3 5 8 7 10 10 10 10 10 8 7 7 6 5 5 4
3 2 2 2 2 2 3 3 4 4 4 5 7 6 7 8 8 7 7 7 6 5 3 3 5 4 5 5 6 6 6 6 7 7 6 6 6 5 5 6 7 10 13 14 15 15 15 13 11 10 12 11 13 14 11 11 12 12 9 11 8 8 3 2 1 0 8 7 12 7 7 2 5 9 11 11 10 8 8 7 7 7 6 6 5
3 1 1 1 2 3 4 4 4 4 4 5 6 6 6 5 6 6 8 8 5 4 2 3 4 4 6 5 6 6 6 6 5 5 6 5 5 5 5 6 6 4 4 5 6 7 7 8 11 12 13 14 12 12 13 10 11 10 9 8 11 8 3 4 5 7 5 5 12 7 7 8 8 11 9 11 12 8 6 6 6 7 7 6 6
3 3 3 3 2 3 4 4 3 3 4 5 6 7 5 5 7 7 9 8 6 5 4 5 4 4 6 6 6 6 5 6 5 5 6 5 6 6 6 6 6 5 5 6 9 10 10 11 12 14 15 16 13 13 12 10 9 10 9 10 12 13 15 15 15 11 10 8 6 12 7 7 10 6 5 9 9 9 8 8 9 10 8 7 7
Wind_Direction
218 180 182 171 148 135 126 135 137 121 134 121 103 99 92 89 88 85 83 84 90 91 92 98 99 97 94 91 86 90 91 90 89 86 85 84 90 89 89 89 87 85 85 83 80 78 77 78 79 78 74 73 76 76 74 74 70 64 62 61 59 58 54 52 48 49 62 69 72 76 76 76 76 76 76 76 76 74 69 69 72 74 76 77 78
178 186 170 163 149 138 139 140 135 127 146 120 106 96 92 87 85 82 80 82 83 88 91 92 95 96 100 92 90 93 94 92 90 89 86 85 85 82 86 90 89 84 83 81 80 80 81 81 80 77 76 78 76 76 80 80 78 75 68 63 62 61 59 57 54 52 51 56 68 73 78 79 80 80 81 81 81 79 76 76 74 71 71 78 77
143 152 168 163 147 138 142 134 129 139 145 113 102 95 90 86 85 84 82 80 82 86 89 91 91 99 104 105 96 89 90 93 92 89 86 84 83 84 84 84 84 85 84 84 84 85 84 83 81 78 79 79 80 82 81 82 81 74 70 67 65 62 60 58 56 53 52 55 59 63 67 76 74 78 81 80 80 78 75 78 80 80 81 79 76
138 154 161 162 151 140 136 143 152 152 121 110 102 96 90 88 85 85 84 84 89 88 90 93 99 105 99 91 86 90 92 93 91 88 86 83 84 87 92 93 92 89 86 84 83 84 87 87 86 84 82 83 85 83 83 83 79 73 69 66 63 61 59 56 52 50 45 45 48 51 57 64 82 83 83 83 81 81 82 83 83 85 86 85 84
135 145 151 145 144 145 150 152 147 125 113 105 101 96 93 91 91 90 90 88 85 93 94 92 94 97 99 94 87 88 93 94 89 88 87 87 87 88 89 90 90 89 87 85 86 89 93 92 87 87 85 84 84 86 87 86 84 72 69 65 63 61 58 55 52 48 44 39 36 33 25 48 75 80 87 87 84 76 73 73 73 72 74 78 80
143 142 142 137 140 143 145 144 128 120 112 108 104 100 97 95 96 95 92 88 85 87 94 97 100 101 95 92 89 88 89 91 92 88 85 85 87 89 91 92 90 91 90 88 89 93 94 91 91 90 88 87 90 90 90 86 86 80 72 66 63 61 59 56 54 51 46 43 40 35 32 51 80 97 91 89 84 80 80 80 79 78 77 76 75
141 134 134 136 135 140 145 139 128 121 116 113 110 108 104 105 103 100 97 94 88 83 90 101 101 102 94 90 89 91 94 93 94 93 91 86 83 88 95 94 92 91 92 90 86 92 94 95 94 92 88 86 87 88 84 82 81 79 75 71 64 61 59 56 53 50 46 42 41 40 41 37 35 68 89 85 82 81 80 76 71 71 66 64 65
130 128 133 133 130 141 141 136 131 125 120 118 118 112 111 112 109 107 103 99 95 89 92 101 103 99 96 95 100 99 98 98 95 94 89 86 87 95 97 96 94 91 88 86 93 95 98 93 90 91 91 91 85 80 82 87 83 79 75 69 64 61 59 56 51 48 49 47 48 53 57 53 60 75 82 85 82 76 72 72 70 67 66 67 63
141 136 136 138 139 140 141 139 136 130 126 125 125 122 119 119 118 114 112 108 106 102 100 101 105 107 100 97 98 101 102 99 94 93 92 88 92 99 102 98 94 92 90 90 90 94 96 95 92 90 87 84 85 85 82 83 83 78 73 69 65 61 57 53 49 44 41 42 49 60 62 66 69 73 81 78 74 71 69 65 65 67 68 69 68
143 130 140 144 152 147 147 149 142 137 134 135 132 130 128 126 124 121 117 115 112 115 115 110 99 105 107 105 107 107 101 99 102 100 98 98 98 106 106 100 97 96 96 95 95 97 96 95 94 92 89 86 89 90 88 85 81 79 74 70 68 63 57 52 46 39 44 40 41 48 61 65 55 76 84 81 77 75 71 69 72 72 71 70 69
148 139 141 153 157 156 154 153 147 143 142 141 140 135 134 130 126 123 122 120 117 117 117 112 110 109 93 95 95 97 97 96 102 102 97 98 104 110 109 105 102 98 96 98 99 99 101 100 96 89 90 94 88 87 85 83 81 78 73 71 69 66 63 54 48 46 44 46 49 45 61 63 62 70 81 82 80 78 77 74 74 74 70 70 71
156 141 148 158 165 162 160 153 154 147 146 146 142 139 137 132 128 126 124 122 121 118 119 118 110 112 101 102 100 103 101 104 104 106 105 104 108 111 109 106 99 95 98 100 100 101 101 98 95 96 95 93 94 92 89 86 82 76 75 74 72 70 71 60 50 52 50 53 56 58 57 58 66 81 81 81 79 80 81 78 75 73 71 71 72
161 152 154 159 158 169 155 156 158 150 152 150 145 143 140 138 134 130 127 125 123 121 118 120 118 111 108 105 106 103 104 107 108 107 105 106 111 115 112 105 100 101 98 102 106 105 103 102 99 100 100 98 96 94 90 85 83 83 79 78 74 68 62 48 52 50 51 50 60 65 68 71 80 85 83 79 77 75 73 74 75 75 76 77 79
160 164 156 159 156 164 153 159 161 154 158 153 149 148 148 143 141 135 132 129 127 125 125 121 119 117 112 105 103 107 112 110 102 106 107 106 109 113 111 109 105 105 107 104 106 108 106 105 105 103 103 101 100 92 92 96 95 86 81 74 61 51 47 49 43 48 49 44 53 64 73 84 89 83 81 80 80 79 77 74 74 75 76 77 76
162 163 158 158 162 158 160 161 164 161 158 155 152 153 151 148 143 140 136 134 132 131 129 124 121 118 112 107 107 110 117 115 112 108 108 107 110 112 113 111 107 100 97 104 109 107 108 107 109 108 105 105 102 103 101 98 96 91 85 82 65 57 54 51 41 44 49 61 68 72 66 76 86 86 85 83 83 82 80 79 80 82 83 81 78
158 159 156 164 163 155 160 167 165 162 159 156 154 154 153 149 146 143 140 138 137 135 133 132 125 122 123 118 120 121 116 112 111 106 106 110 113 115 116 114 108 107 107 114 116 113 110 110 110 108 106 108 108 107 100 96 93 90 85 77 67 64 59 62 49 49 63 73 69 65 69 104 98 89 89 88 89 87 85 83 82 81 82 81 81
156 155 162 167 161 157 157 163 167 164 158 154 155 151 151 147 148 144 144 141 140 138 137 135 129 113 113 119 122 117 112 116 116 114 113 113 118 117 120 120 112 112 117 123 122 119 110 110 114 111 113 113 112 102 98 93 88 89 84 75 70 65 64 63 61 60 76 83 83 71 67 73 90 96 92 91 89 88 88 86 86 85 80 80 81
162 165 172 169 160 158 156 159 158 161 154 153 153 153 150 148 148 143 142 142 141 139 137 137 131 110 81 79 92 89 117 123 123 125 124 118 114 123 126 123 123 115 121 126 124 119 114 116 118 117 117 113 102 97 92 91 85 79 76 75 69 66 65 67 68 65 71 68 55 33 62 92 89 93 95 92 89 88 87 86 85 84 84 84 82
154 175 174 172 171 156 161 157 156 155 153 154 153 155 152 149 144 144 140 140 139 134 133 128 113 105 88 83 89 91 90 95 95 96 104 115 120 132 128 122 118 117 121 126 126 123 121 122 121 120 111 101 97 92 89 84 83 78 76 73 67 68 64 63 64 64 53 41 37 81 85 94 102 99 95 93 92 89 87 90 84 82 84 85 85
174 178 180 183 174 168 165 160 149 148 157 157 153 149 156 148 145 145 144 141 138 134 126 115 107 100 94 90 90 89 89 95 98 100 108 112 112 109 107 114 120 120 130 132 130 127 128 125 121 109 103 99 94 89 88 86 87 85 82 80 74 69 62 60 61 55 52 43 69 95 122 121 112 103 96 92 92 94 93 84 85 87 87 86 84
166 190 185 183 182 181 172 161 135 135 140 133 151 147 158 149 144 148 148 143 139 133 116 110 107 103 101 98 90 88 93 94 92 97 100 108 116 117 104 122 122 123 132 131 132 131 130 124 113 104 98 92 83 77 75 82 83 86 83 79 78 70 64 66 60 57 55 63 62 57 62 82 97 103 98 92 89 87 88 92 92 90 86 87 93
182 183 190 186 184 187 180 119 167 167 164 158 158 153 153 153 147 150 149 142 134 125 120 121 116 116 112 106 102 100 98 99 100 103 107 116 117 124 114 115 122 119 126 134 131 132 128 122 109 103 99 92 79 76 68 60 65 72 74 79 73 75 67 71 66 58 61 67 72 86 98 110 110 100 95 93 95 98 94 94 96 98 100 99 93
194 187 188 188 191 187 184 163 151 155 158 167 166 158 159 156 152 152 145 140 138 135 134 128 127 127 121 117 115 113 110 105 110 118 118 122 126 129 130 111 119 118 121 129 132 130 127 111 101 99 93 85 76 79 75 68 64 55 68 69 78 74 77 74 72 63 58 50 73 103 111 108 101 97 95 92 91 91 95 98 95 90 92 97 99
194 196 191 188 191 195 186 183 173 152 147 149 159 160 166 161 158 156 146 140 141 143 140 137 136 133 127 125 125 124 119 115 110 111 110 106 118 121 119 113 117 112 103 103 113 113 98 93 93 88 80 76 82 73 77 72 66 64 67 67 75 72 76 76 77 68 51 27 78 117 115 105 94 92 92 101 97 101 103 94 94 101 104 100 96
198 184 192 195 196 191 189 188 185 171 176 158 171 156 170 165 161 160 151 149 145 145 143 141 143 137 131 128 129 127 124 122 120 112 115 116 108 113 115 91 82 85 94 85 83 80 84 88 82 74 76 84 83 71 76 79 67 68 68 62 70 68 73 72 80 67 44 14 344 139 113 106 109 106 104 103 104 102 99 102 106 110 106 104 104
181 188 197 196 198 194 190 189 186 185 182 180 183 176 174 176 169 167 155 155 154 154 152 150 148 145 141 135 127 122 127 126 131 131 125 128 124 129 120 99 94 94 99 97 89 98 92 97 97 94 85 81 82 78 66 81 90 73 69 60 61 63 62 77 74 69 47 9 344 127 118 112 113 116 124 110 104 109 109 110 108 110 109 109 110
194 204 191 198 194 196 192 188 194 186 187 183 182 178 188 184 174 170 164 164 162 158 166 163 161 154 150 150 142 143 140 142 142 146 148 141 142 143 131 108 114 110 103 114 101 96 108 106 103 102 102 99 90 85 81 75 80 96 77 67 58 59 50 76 76 74 63 47 35 17 29 126 122 125 113 109 116 118 118 116 117 118 117 119 117
207 207 199 195 192 196 193 190 195 191 189 184 185 189 190 185 182 168 175 168 164 172 169 173 160 163 161 162 151 151 153 154 157 156 160 146 153 153 128 114 114 115 107 114 116 103 103 103 109 104 105 99 108 99 96 85 76 88 101 76 66 53 43 61 84 75 66 41 37 17 35 120 123 121 121 127 126 126 125 129 129 127 125 117 115
214 210 206 201 197 193 192 194 195 196 191 187 189 189 195 191 185 183 187 164 178 177 168 160 169 166 166 162 156 152 155 158 163 167 149 159 150 149 140 127 122 126 120 114 125 128 114 117 114 111 92 94 98 102 99 86 80 68 91 93 71 53 48 61 78 59 69 28 6 18 59 130 133 130 132 134 136 136 139 144 127 129 125 122 120
215 213 209 210 199 187 194 199 194 195 194 192 196 186 193 201 192 191 192 169 184 177 163 171 173 169 172 171 174 166 170 169 166 158 162 164 157 145 139 132 132 133 129 133 131 130 133 121 114 111 109 98 87 80 98 94 78 75 66 88 68 42 29 49 65 58 43 32 13 353 21 138 135 139 139 144 141 141 142 137 137 133 132 132 129
210 218 214 210 198 193 199 199 197 191 194 200 199 194 187 201 202 192 192 186 180 173 176 175 174 179 175 171 174 178 169 166 163 163 166 157 160 156 157 133 132 141 132 128 116 128 128 128 134 132 127 118 106 83 91 99 91 76 71 83 79 64 45 27 44 62 60 27 23 6 360 36 126 143 150 149 145 153 150 148 147 144 143 141 140
209 217 213 202 204 208 203 200 198 192 195 203 201 202 194 194 197 199 200 189 182 182 182 182 183 181 175 176 178 180 176 174 169 165 167 163 167 169 157 156 156 146 136 137 130 124 128 114 101 103 106 108 103 85 79 107 103 98 91 87 82 78 58 37 49 54 45 39 12 41 41 13 24 34 11 159 157 159 160 157 153 155 156 151 149
222 218 208 204 211 207 209 206 199 194 198 203 204 205 200 192 192 196 195 193 192 191 189 191 188 185 181 177 183 182 181 179 178 174 171 170 169 168 170 172 160 155 142 142 131 125 115 109 94 100 106 109 106 98 88 71 81 71 81 74 83 83 68 74 61 52 43 20 6 360 49 70 58 32 31 138 167 164 163 167 164 167 170 163 162
216 206 201 214 209 209 207 210 210 202 198 203 205 204 201 196 193 196 191 194 196 196 197 189 190 187 185 185 178 182 184 184 176 175 171 169 172 179 178 175 166 158 145 146 144 145 136 130 133 119 126 129 131 133 128 118 113 107 98 89 73 72 82 85 63 64 52 22 330 64 56 54 47 72 74 63 74 173 173 171 178 184 179 172 165
214 206 210 214 204 211 200 213 210 218 202 204 203 203 193 194 194 195 195 188 207 210 194 186 187 189 185 192 192 179 180 185 182 179 178 175 175 182 184 185 163 162 159 162 154 152 150 153 153 134 127 117 125 137 139 142 148 144 143 139 130 116 90 96 75 85 77 257 245 116 69 59 64 42 53 72 69 67 70 170 187 184 177 171 180
215 216 215 198 211 210 203 210 207 217 217 211 207 206 201 188 182 209 205 194 196 213 225 199 182 184 187 187 193 199 183 176 182 183 181 182 183 187 195 179 172 167 163 158 159 165 165 158 173 156 144 152 144 147 142 148 149 146 94 46 125 116 105 91 119 125 246 232 210 167 151 150 147 148 129 100 104 71 101 80 58 171 194 179 189
216 212 210 203 213 207 205 208 210 211 216 216 214 210 208 210 208 204 211 218 210 203 200 213 208 187 183 187 189 190 202 191 178 182 184 185 188 197 194 187 180 176 169 171 172 171 166 165 170 187 166 158 170 161 157 155 142 109 55 19 10 22 50 7 359 344 326 278 306 354 347 334 358 128 135 140 97 109 93 91 95 84 78 42 191
218 214 209 206 212 205 205 209 212 211 211 212 208 209 207 205 206 209 208 211 217 218 205 191 208 199 178 194 187 188 192 201 197 181 193 195 192 192 184 177 178 189 204 193 192 175 172 168 172 186 180 160 173 170 169 146 125 114 81 34 353 19 9 355 346 333 333 297 300 279 330 333 302 287 223 159 156 149 113 99 99 96 82 84 54
221 215 210 212 209 208 207 211 211 210 211 209 205 204 199 197 197 199 204 211 209 205 207 208 198 195 200 181 191 194 194 195 197 193 189 190 190 187 184 179 172 175 170 187 202 180 180 198 183 174 180 187 172 173 161 151 136 122 105 55 13 335 285 171 219 289 255 248 281 303 317 266 283 257 214 203 196 173 148 144 131 113 105 93 95
221 211 211 208 210 210 208 213 212 207 205 205 196 199 200 202 204 208 217 211 202 196 202 209 204 204 196 186 190 199 195 195 192 192 197 193 192 181 177 185 187 177 175 178 191 193 193 188 191 169 162 144 148 151 142 136 106 89 66 42 52 344 312 310 255 222 265 227 221 238 262 292 284 269 281 293 285 229 168 156 147 140 128 112 99
216 206 206 210 208 208 197 213 207 195 193 197 196 194 200 206 214 211 217 207 207 202 202 207 205 207 201 193 187 196 195 195 197 187 190 189 193 192 173 181 196 209 202 198 192 191 193 187 160 172 163 149 156 159 152 137 134 83 31 340 304 234 270 289 293 279 249 265 280 240 232 248 242 241 248 299 296 275 221 178 158 147 136 128 107
225 206 208 211 208 203 205 216 190 196 200 199 198 199 203 204 200 210 210 205 200 202 211 203 202 198 201 207 202 191 184 187 194 193 193 196 198 195 191 185 181 199 218 236 183 168 166 174 163 161 190 169 166 171 168 131 185 194 170 231 304 277 240 248 262 257 242 230 231 249 258 249 243 239 248 299 291 301 296 284 160 139 138 131 140
221 205 220 212 204 203 212 209 200 196 203 199 193 205 205 206 200 204 198 206 217 210 214 200 191 196 202 208 211 218 213 197 184 187 193 197 202 206 214 209 193 183 181 193 188 183 185 183 179 181 170 175 127 167 185 202 159 105 75 74 259 262 262 266 236 241 232 224 221 237 238 249 249 247 233 256 249 265 287 312 192 164 169 163 156
239 218 209 210 207 209 210 206 205 201 200 201 202 204 181 161 134 121 168 181 194 199 199 198 195 205 213 205 210 206 204 210 203 189 185 191 200 203 200 187 193 190 185 187 193 198 193 195 189 188 172 168 185 193 193 205 159 142 177 199 141 143 325 239 226 227 195 218 218 228 218 232 242 250 258 242 229 213 231 258 238 210 196 190 173
221 220 209 209 208 214 215 210 208 204 203 194 196 160 122 115 101 67 63 69 37 143 191 223 211 206 213 212 217 199 199 208 204 201 204 201 200 202 199 197 192 190 191 194 198 202 196 193 189 184 186 190 194 194 199 203 209 211 156 117 65 276 228 277 94 251 165 214 230 220 221 227 232 235 238 243 226 218 207 211 221 220 209 203 196
237 234 218 217 213 216 205 204 198 190 196 190 173 157 170 164 158 162 179 188 206 184 205 210 206 207 213 210 206 203 210 212 210 215 208 201 202 206 210 206 206 206 210 208 205 195 195 195 194 195 200 205 198 177 197 211 222 221 227 240 161 185 177 204 118 267 354 232 256 216 222 224 220 236 239 241 231 232 215 223 214 225 206 215 208
248 230 212 212 212 211 199 193 194 185 172 165 161 165 172 182 189 198 203 205 211 219 217 217 210 216 211 206 210 206 209 213 220 212 215 226 230 210 197 193 195 197 193 197 200 201 202 202 198 203 207 201 176 192 198 199 213 246 234 226 175 166 163 136 209 51 297 256 217 220 226 218 216 226 239 240 232 226 220 210 217 216 213 203 209
270 277 228 214 202 200 179 185 175 164 161 154 167 179 186 191 198 210 212 215 212 223 196 212 211 197 206 214 209 213 212 218 220 223 224 217 212 225 233 223 201 188 179 196 205 206 208 211 207 208 203 193 198 203 205 193 187 215 214 219 216 136 218 158 161 194 203 229 257 255 248 227 218 226 225 232 231 227 218 208 211 215 217 208 215
312 291 247 223 203 165 148 137 151 149 162 164 172 191 197 195 202 206 224 229 227 235 185 180 190 194 208 215 215 214 214 219 220 221 220 220 219 227 224 223 220 209 196 200 204 204 204 199 196 193 200 204 207 215 212 205 204 218 179 221 220 220 204 244 354 78 214 221 254 204 224 184 233 246 233 222 230 227 227 218 204 209 211 212 204
334 342 18 85 102 114 124 135 156 163 166 174 180 191 199 193 202 212 223 233 227 247 170 196 199 188 214 213 216 219 218 220 223 224 223 218 224 222 228 232 233 238 220 211 202 205 200 194 194 197 204 212 214 215 215 206 207 215 196 195 201 210 218 264 250 225 267 228 249 235 203 186 215 235 217 224 221 217 222 223 218 216 213 204 192
9 37 30 47 73 105 128 144 174 165 168 182 181 195 196 196 208 212 220 229 226 219 228 242 219 214 220 219 213 218 215 219 218 228 226 224 228 222 222 225 223 222 228 229 207 199 201 201 201 202 204 207 210 209 215 218 208 212 208 198 206 198 201 206 216 210 203 214 240 255 234 210 224 259 225 216 208 210 212 215 220 220 207 202 197